1487710800.14,14575,11.44,72236.8,-11.13,-12.11,-12.11,0,*60
1487710801.4,14576,11.44,72232.5,-11.13,-12.03,-11.97,0,*6D
1487710802.66,14577,11.44,72238.3,-11.13,-12.03,-12.11,0,*61
1487710803.95,14578,11.44,72276.3,-11.13,-12.11,-12.15,0,*69
1487710805.2,14579,11.44,72268.0,-11.13,-12.25,-12.25,0,*6C
1487710806.44,14580,11.44,72274.3,-11.13,-12.29,-12.25,0,*66
1487710807.68,14581,11.44,72268.8,-11.13,-12.39,-12.29,0,*6A
1487710808.9,14582,11.5,72248.3,-11.15,-12.29,-12.29,0,*6E
1487710810.12,14583,11.44,72236.3,-11.15,-12.29,-12.29,0,*6F
1487710811.36,14584,11.44,72228.8,-11.13,-12.25,-12.25,0,*6E
1487710812.61,14585,11.44,72264.3,-11.17,-12.29,-12.29,0,*6B
1487710813.82,14586,11.44,72212.0,-11.15,-12.25,-12.25,0,*6A
1487710815.04,14587,11.44,72148.5,-11.15,-12.29,-12.39,0,*6A
1487710816.31,14588,11.44,72140.3,-11.17,-12.35,-12.47,0,*63
1487710817.53,14589,11.44,72204.8,-11.15,-12.29,-12.25,0,*69
1487710818.74,14590,11.44,72230.0,-11.15,-12.03,-12.03,0,*6D
1487710820.01,14591,11.5,72274.3,-11.17,-12.07,-12.03,0,*6A
1487710821.27,14592,11.44,72282.0,-11.15,-11.97,-11.97,0,*6F
1487710822.54,14593,11.5,72310.8,-11.15,-11.93,-11.97,0,*6A
1487710823.81,14594,11.44,72318.0,-11.15,-11.93,-11.93,0,*69
1487710825.09,14595,11.44,72332.5,-11.15,-11.93,-11.93,0,*68
1487710826.35,14596,11.44,72340.5,-11.15,-11.97,-12.11,0,*66
1487710827.57,14597,11.44,72340.5,-11.15,-12.25,-12.29,0,*66
1487710828.78,14598,11.44,72308.3,-11.15,-12.39,-12.39,0,*65
1487710830.02,14599,11.5,72302.5,-11.15,-12.43,-12.53,0,*65
1487710831.26,14600,11.44,72310.8,-11.17,-12.47,-12.47,0,*65
1487710832.54,14601,11.44,72302.8,-11.17,-12.29,-12.35,0,*69
1487710833.75,14602,11.44,72290.3,-11.15,-12.25,-12.25,0,*65
1487710835.01,14603,11.44,72268.3,-11.15,-12.15,-12.15,0,*64
1487710836.25,14604,11.44,72192.5,-11.15,-12.15,-12.25,0,*60
1487710837.5,14605,11.44,72064.3,-11.17,-12.21,-12.29,0,*68
1487710838.75,14606,11.5,72090.3,-11.17,-12.21,-12.21,0,*63
1487710840.02,14607,11.44,72094.8,-11.17,-12.15,-12.21,0,*65
1487710841.29,14608,11.44,72132.8,-11.15,-12.11,-12.11,0,*6F
1487710842.55,14609,11.5,72204.5,-11.15,-12.07,-12.15,0,*6D
1487710843.84,14610,11.44,72134.8,-11.17,-12.15,-12.15,0,*64
1487710845.13,14611,11.44,72166.3,-11.17,-12.15,-12.07,0,*66
1487710846.43,14612,11.44,72236.5,-11.17,-12.07,-12.07,0,*66
1487710847.72,14613,11.5,72248.5,-11.17,-12.15,-12.07,0,*64
1487710848.93,14614,11.44,72250.5,-11.15,-12.03,-12.03,0,*62
1487710850.19,14615,11.44,72256.8,-11.15,-11.97,-11.97,0,*63
1487710851.46,14616,11.44,72264.5,-11.17,-12.07,-12.03,0,*66
1487710852.73,14617,11.44,72262.8,-11.17,-12.07,-12.03,0,*67
1487710854.02,14618,11.44,72322.8,-11.17,-11.97,-11.97,0,*6C
1487710855.31,14619,11.44,72340.8,-11.17,-11.89,-11.89,0,*6D
1487710856.6,14620,11.5,72336.8,-11.17,-11.89,-11.85,0,*6B
1487710857.86,14621,11.44,72318.8,-11.15,-11.85,-11.85,0,*64
1487710859.15,14622,11.44,72324.3,-11.17,-11.89,-11.97,0,*6A
1487710860.44,14623,11.44,72308.0,-11.17,-11.97,-11.97,0,*64
1487710861.71,14624,11.44,72320.0,-11.17,-11.97,-12.03,0,*6D
1487710862.97,14625,11.5,72322.8,-11.15,-11.97,-11.97,0,*60
1487710864.21,14626,11.44,72308.0,-11.15,-12.11,-12.03,0,*60
1487710865.45,14627,11.44,72264.3,-11.15,-12.11,-12.03,0,*61
1487710866.7,14628,11.44,72250.8,-11.15,-12.21,-12.15,0,*6A
1487710867.94,14629,11.44,72256.3,-11.17,-12.29,-12.21,0,*66
1487710869.19,14630,11.44,72234.5,-11.17,-12.21,-12.29,0,*6E
1487710870.46,14631,11.44,72210.3,-11.17,-12.21,-12.15,0,*60
1487710871.73,14632,11.44,72180.5,-11.17,-12.21,-12.15,0,*63
1487710873.03,14633,11.44,72180.0,-11.17,-12.15,-12.07,0,*66
1487710874.32,14634,11.44,72186.5,-11.17,-12.07,-12.07,0,*62
1487710875.57,14635,11.44,72206.3,-11.17,-12.21,-12.21,0,*63
1487710876.82,14636,11.44,72206.8,-11.17,-12.21,-12.21,0,*60
1487710878.08,14637,11.44,72238.8,-11.17,-12.25,-12.15,0,*62
1487710879.37,14638,11.44,72244.5,-11.17,-12.15,-12.15,0,*6E
1487710880.61,14639,11.44,72256.3,-11.15,-12.11,-12.03,0,*6E
1487710881.91,14640,11.44,72270.3,-11.17,-12.15,-12.07,0,*62
1487710883.2,14641,11.44,72278.0,-11.17,-12.07,-12.15,0,*63
1487710884.46,14642,11.44,72256.0,-11.15,-12.07,-12.15,0,*62
1487710885.75,14643,11.44,72254.0,-11.17,-12.07,-12.07,0,*62
1487710887.02,14644,11.44,72256.0,-11.17,-12.07,-12.03,0,*61
1487710888.26,14645,11.44,72264.5,-11.17,-12.03,-12.03,0,*64
1487710889.52,14646,11.44,72274.0,-11.17,-11.97,-12.03,0,*69
1487710890.82,14647,11.44,72288.8,-11.17,-11.89,-11.97,0,*69
1487710892.1,14648,11.44,72302.3,-11.17,-11.85,-11.85,0,*69
1487710893.37,14649,11.44,72282.0,-11.15,-11.85,-11.85,0,*6A
1487710894.65,14650,11.44,72284.0,-11.17,-11.89,-11.85,0,*6C
1487710895.94,14651,11.44,72288.8,-11.17,-11.85,-11.85,0,*61
1487710897.2,14652,11.44,72310.0,-11.15,-11.81,-11.81,0,*60
1487710898.45,14653,11.44,72316.5,-11.15,-11.81,-11.81,0,*61
1487710899.71,14654,11.44,72316.5,-11.15,-11.85,-11.81,0,*62
1487710901.0,14655,11.44,72326.5,-11.17,-11.85,-11.85,0,*65
1487710902.26,14656,11.44,72328.5,-11.15,-11.81,-11.81,0,*64
1487710903.52,14657,11.44,72332.8,-11.15,-11.85,-11.81,0,*61
1487710904.78,14658,11.44,72328.3,-11.15,-11.81,-11.85,0,*6E
1487710906.04,14659,11.44,72326.8,-11.15,-11.85,-11.81,0,*6F
1487710907.29,14660,11.5,72330.3,-11.15,-11.81,-11.81,0,*61
1487710908.55,14661,11.44,72328.3,-11.15,-11.81,-11.85,0,*64
1487710909.81,14662,11.44,72330.0,-11.15,-11.85,-11.85,0,*63
1487710911.07,14663,11.44,72320.0,-11.15,-11.85,-11.81,0,*66
1487710912.36,14664,11.44,72328.8,-11.13,-11.85,-11.85,0,*63
1487710913.63,14665,11.44,72328.5,-11.15,-11.85,-11.93,0,*63
1487710914.89,14666,11.44,72328.8,-11.15,-11.85,-11.85,0,*67
1487710916.16,14667,11.44,72330.3,-11.15,-11.93,-11.85,0,*61
1487710917.45,14668,11.44,72316.0,-11.13,-11.85,-11.85,0,*6F
1487710918.74,14669,11.44,72314.0,-11.13,-11.97,-11.93,0,*6A
1487710920.0,14670,11.44,72304.8,-11.15,-11.97,-11.97,0,*60
1487710921.28,14671,11.44,72304.5,-11.15,-11.93,-11.93,0,*61
1487710922.54,14672,11.44,72282.8,-11.15,-11.85,-11.97,0,*61
1487710923.84,14673,11.44,72276.5,-11.13,-11.93,-11.93,0,*65
1487710925.13,14674,11.44,72276.0,-11.13,-11.85,-11.93,0,*65
1487710926.43,14675,11.44,72268.0,-11.13,-11.93,-11.93,0,*63
1487710927.72,14676,11.44,72232.8,-11.13,-11.97,-11.97,0,*60
1487710928.98,14677,11.44,72226.3,-11.15,-11.97,-11.93,0,*63
1487710930.25,14678,11.44,72228.5,-11.15,-11.97,-11.97,0,*68
1487710931.52,14679,11.44,72230.3,-11.15,-11.93,-11.93,0,*69
1487710932.82,14680,11.44,72226.5,-11.13,-11.93,-11.93,0,*69
1487710934.11,14681,11.44,72220.5,-11.13,-11.85,-11.85,0,*68
1487710935.4,14682,11.44,72214.0,-11.13,-11.85,-11.93,0,*6C
1487710936.69,14683,11.44,72206.3,-11.13,-11.85,-11.85,0,*6A
1487710937.97,14684,11.44,72220.8,-11.13,-11.81,-11.81,0,*6D
1487710939.23,14685,11.44,72234.5,-11.15,-11.81,-11.81,0,*6A
1487710940.48,14686,11.44,72262.3,-11.15,-11.81,-11.81,0,*69
1487710941.74,14687,11.44,72262.3,-11.15,-11.81,-11.81,0,*68
1487710942.99,14688,11.44,72296.5,-11.11,-11.81,-11.77,0,*6A
1487710944.28,14689,11.44,72290.8,-11.13,-11.85,-11.81,0,*64
1487710945.54,14690,11.44,72288.0,-11.11,-11.81,-11.93,0,*69
1487710946.82,14691,11.44,72272.8,-11.13,-11.81,-11.81,0,*69
1487710948.11,14692,11.44,72236.3,-11.13,-11.81,-11.85,0,*6E
1487710949.4,14693,11.44,72288.3,-11.13,-11.85,-11.73,0,*62
1487710950.66,14694,11.44,72288.5,-11.11,-11.67,-11.77,0,*6F
1487710951.92,14695,11.44,72296.3,-11.11,-11.73,-11.73,0,*6F
1487710953.2,14696,11.44,72312.5,-11.13,-11.73,-11.81,0,*63
1487710954.48,14697,11.44,72316.0,-11.13,-11.73,-11.73,0,*6F
1487710955.77,14698,11.44,72310.8,-11.13,-11.73,-11.81,0,*6D
1487710957.05,14699,11.44,72306.3,-11.13,-11.81,-11.81,0,*61
1487710958.33,14700,11.44,72318.3,-11.13,-11.73,-11.81,0,*6D
1487710959.62,14701,11.44,72322.8,-11.13,-11.73,-11.73,0,*61
1487710960.88,14702,11.44,72324.8,-11.11,-11.67,-11.67,0,*60
1487710962.14,14703,11.44,72328.0,-11.11,-11.67,-11.81,0,*69
1487710963.4,14704,11.44,72330.3,-11.11,-11.77,-11.81,0,*6F
1487710964.69,14705,11.44,72342.8,-11.13,-11.93,-11.77,0,*6F
1487710965.98,14706,11.44,72344.5,-11.13,-11.81,-11.81,0,*66
1487710967.23,14707,11.44,72352.3,-11.11,-11.81,-11.77,0,*6C
1487710968.49,14708,11.44,72350.8,-11.11,-11.77,-11.77,0,*6A
1487710969.77,14709,11.44,72360.0,-11.13,-11.73,-11.81,0,*64
1487710971.06,14710,11.44,72362.8,-11.13,-11.73,-11.73,0,*61
1487710972.32,14711,11.44,72358.3,-11.11,-11.77,-11.81,0,*6B
1487710973.59,14712,11.44,72320.5,-11.11,-11.93,-11.93,0,*61
1487710974.88,14713,11.44,72330.0,-11.13,-11.97,-11.97,0,*62
1487710976.15,14714,11.44,72338.3,-11.11,-11.93,-11.89,0,*6C
1487710977.45,14715,11.44,72326.5,-11.13,-11.93,-11.93,0,*64
1487710978.75,14716,11.44,72328.8,-11.13,-11.93,-11.85,0,*60
1487710980.04,14717,11.44,72330.3,-11.13,-11.97,-11.93,0,*62
1487710981.31,14718,11.44,72328.8,-11.11,-11.89,-11.89,0,*6B
1487710982.57,14719,11.44,72328.3,-11.11,-11.89,-11.93,0,*61
1487710983.86,14720,11.44,72328.0,-11.13,-11.81,-11.93,0,*61
1487710985.15,14721,11.44,72324.8,-11.13,-11.85,-11.85,0,*63
1487710986.43,14722,11.44,72326.5,-11.13,-11.85,-11.81,0,*64
1487710987.69,14723,11.44,72310.3,-11.11,-11.77,-11.77,0,*63
1487710988.95,14724,11.44,72296.3,-11.11,-11.77,-11.81,0,*6D
1487710990.21,14725,11.44,72282.3,-11.11,-11.85,-11.85,0,*65
1487710991.48,14726,11.44,72280.8,-11.11,-11.89,-11.89,0,*66
1487710992.75,14727,11.44,72276.0,-11.11,-11.89,-11.93,0,*6C
1487710994.05,14728,11.44,72282.8,-11.13,-11.93,-11.93,0,*6A
1487710995.3,14729,11.44,72268.8,-11.11,-11.81,-11.77,0,*60
1487710996.56,14730,11.44,72276.0,-11.11,-11.81,-11.81,0,*61
1487710997.84,14731,11.44,72266.3,-11.13,-11.85,-11.81,0,*66
1487710999.1,14732,11.44,72268.8,-11.11,-11.81,-11.81,0,*63
1487711000.36,14733,11.44,72282.5,-11.11,-11.77,-11.77,0,*62
1487711001.62,14734,11.44,72296.3,-11.11,-11.77,-11.77,0,*65
1487711002.88,14735,11.44,72302.8,-11.11,-11.77,-11.81,0,*6D
1487711004.13,14736,11.44,72310.0,-11.11,-11.81,-11.81,0,*67
1487711005.39,14737,11.44,72292.3,-11.11,-11.81,-11.77,0,*6F
1487711006.65,14738,11.44,72288.0,-11.11,-11.77,-11.81,0,*60
1487711007.91,14739,11.44,72296.5,-11.11,-11.77,-11.77,0,*68
1487711009.16,14740,11.44,72288.8,-11.11,-11.77,-11.81,0,*6F
1487711010.45,14741,11.44,72286.8,-11.13,-11.81,-11.81,0,*65
1487711011.71,14742,11.44,72288.5,-11.11,-11.77,-11.77,0,*64
1487711012.99,14743,11.44,72302.5,-11.13,-11.81,-11.81,0,*67
1487711014.27,14744,11.44,72312.0,-11.13,-11.85,-11.81,0,*64
1487711015.55,14745,11.44,72304.8,-11.09,-11.81,-11.81,0,*6A
1487711016.84,14746,11.44,72310.0,-11.09,-11.89,-11.93,0,*62
1487711018.12,14747,11.44,72320.8,-11.13,-11.97,-11.97,0,*63
1487711019.42,14748,11.44,72324.5,-11.13,-11.93,-11.93,0,*6C
1487711020.69,14749,11.44,72330.3,-11.11,-11.89,-11.89,0,*6F
1487711021.96,14750,11.44,72332.3,-11.11,-11.89,-11.89,0,*67
1487711023.22,14751,11.44,72310.0,-11.11,-11.81,-11.93,0,*65
1487711024.51,14752,11.44,72300.0,-11.13,-11.93,-11.97,0,*63
1487711025.73,14753,11.44,72286.0,-11.11,-12.03,-12.03,0,*64
1487711026.99,14754,11.44,72262.8,-11.11,-11.97,-11.93,0,*67
1487711028.26,14755,11.44,72258.5,-11.11,-11.97,-11.93,0,*66
1487711029.52,14756,11.44,72282.0,-11.11,-11.97,-11.93,0,*65
1487711030.74,14757,11.44,72288.0,-11.11,-12.03,-12.03,0,*60
1487711031.98,14758,11.44,72258.0,-11.13,-12.03,-12.03,0,*6D
1487711033.24,14759,11.44,72180.0,-11.11,-11.97,-11.93,0,*6A
1487711034.51,14760,11.44,72206.8,-11.11,-11.97,-11.97,0,*64
1487711035.77,14761,11.44,72212.3,-11.11,-11.97,-11.97,0,*65
1487711037.01,14762,11.44,72202.0,-11.13,-12.03,-12.03,0,*64
1487711038.25,14763,11.44,72190.5,-11.13,-12.03,-12.03,0,*65
1487711039.51,14764,11.44,72194.5,-11.11,-11.97,-11.97,0,*60
1487711040.77,14765,11.44,72204.0,-11.11,-11.97,-11.97,0,*61
1487711042.04,14766,11.44,72166.3,-11.13,-11.97,-12.03,0,*6E
1487711043.31,14767,11.44,72204.8,-11.11,-11.93,-11.97,0,*67
1487711044.59,14768,11.44,72212.8,-11.13,-11.97,-11.97,0,*6E
1487711045.87,14769,11.44,72168.8,-11.11,-11.93,-11.93,0,*6D
1487711047.13,14770,11.44,72154.0,-11.11,-11.97,-11.89,0,*6A
1487711048.41,14771,11.44,72174.0,-11.11,-11.93,-11.93,0,*64
1487711049.69,14772,11.44,72190.0,-11.13,-11.97,-11.97,0,*65
1487711050.98,14773,11.44,72184.3,-11.13,-11.97,-11.97,0,*64
1487711052.28,14774,11.44,72200.8,-11.13,-11.93,-11.93,0,*63
1487711053.57,14775,11.44,72232.8,-11.13,-11.97,-11.97,0,*62
1487711054.87,14776,11.44,72238.8,-11.13,-11.93,-11.93,0,*61
1487711056.16,14777,11.44,72250.8,-11.13,-11.85,-11.85,0,*60
1487711057.44,14778,11.44,72264.8,-11.13,-11.81,-11.81,0,*6F
1487711058.7,14779,11.44,72284.8,-11.11,-11.77,-11.81,0,*65
1487711059.97,14780,11.44,72296.8,-11.11,-11.93,-11.93,0,*6A
1487711061.25,14781,11.44,72304.8,-11.11,-11.93,-11.93,0,*6B
1487711062.5,14782,11.44,72302.8,-11.11,-11.89,-11.81,0,*60
1487711063.77,14783,11.44,72294.3,-11.11,-11.89,-11.89,0,*69
1487711065.03,14784,11.44,72288.3,-11.11,-11.81,-11.89,0,*66
1487711066.29,14785,11.44,72296.0,-11.11,-11.81,-11.81,0,*6F
1487711067.57,14786,11.44,72300.3,-11.13,-11.85,-11.81,0,*6A
1487711068.83,14787,11.44,72300.5,-11.11,-11.67,-11.77,0,*6C
1487711070.12,14788,11.44,72286.0,-11.13,-11.81,-11.81,0,*60
1487711071.4,14789,11.44,72294.0,-11.13,-11.73,-11.81,0,*6C
1487711072.66,14790,11.44,72298.3,-11.11,-11.77,-11.77,0,*6B
1487711073.92,14791,11.44,72314.5,-11.11,-11.67,-11.67,0,*6A
1487711075.19,14792,11.44,72326.0,-11.11,-11.67,-11.63,0,*6D
1487711076.46,14793,11.44,72338.5,-11.11,-11.67,-11.67,0,*68
1487711077.73,14794,11.44,72346.5,-11.11,-11.67,-11.67,0,*6F
1487711078.99,14795,11.44,72360.8,-11.11,-11.77,-11.67,0,*6F
1487711080.26,14796,11.44,72350.3,-11.11,-11.67,-11.63,0,*69
1487711081.53,14797,11.44,72360.0,-11.11,-11.67,-11.67,0,*6C
1487711082.81,14798,11.44,72364.5,-11.09,-11.63,-11.67,0,*6E
1487711084.08,14799,11.44,72356.0,-11.11,-11.67,-11.63,0,*66
1487711085.37,14800,11.44,72356.3,-11.09,-11.63,-11.67,0,*60
1487711086.66,14801,11.44,72356.0,-11.09,-11.67,-11.67,0,*65
1487711087.95,14802,11.44,72354.3,-11.09,-11.67,-11.63,0,*62
1487711089.24,14803,11.44,72354.3,-11.09,-11.63,-11.67,0,*63
1487711090.52,14804,11.44,72354.3,-11.09,-11.67,-11.67,0,*60
1487711091.81,14805,11.44,72362.8,-11.09,-11.77,-11.67,0,*60
1487711093.08,14806,11.44,72360.5,-11.05,-11.63,-11.63,0,*6E
1487711094.38,14807,11.44,72362.8,-11.09,-11.63,-11.63,0,*63
1487711095.66,14808,11.44,72356.8,-11.09,-11.77,-11.81,0,*65
1487711096.94,14809,11.44,72312.3,-11.09,-11.77,-11.77,0,*6D
1487711098.22,14810,11.44,72330.0,-11.09,-11.77,-11.77,0,*65
1487711099.49,14811,11.44,72336.8,-11.09,-11.77,-11.81,0,*6D
1487711100.76,14812,11.44,72338.8,-11.05,-11.77,-11.85,0,*66
1487711102.03,14813,11.44,72330.5,-11.05,-11.81,-11.89,0,*62
1487711103.32,14814,11.44,72320.3,-11.09,-11.93,-11.93,0,*61
1487711104.61,14815,11.44,72320.8,-11.09,-11.89,-11.85,0,*6C
1487711105.89,14816,11.44,72318.8,-11.09,-11.89,-11.89,0,*63
1487711107.16,14817,11.44,72308.5,-11.05,-11.89,-11.89,0,*6E
1487711108.44,14818,11.44,72308.0,-11.11,-11.93,-11.93,0,*64
1487711109.73,14819,11.44,72306.5,-11.09,-11.93,-11.97,0,*68
1487711111.01,14820,11.44,72286.8,-11.09,-11.97,-11.97,0,*66
1487711112.3,14821,11.44,72226.3,-11.09,-11.97,-11.93,0,*63
1487711113.59,14822,11.44,72218.8,-11.09,-11.93,-11.93,0,*64
1487711114.88,14823,11.44,72214.0,-11.09,-11.89,-11.93,0,*6E
1487711116.16,14824,11.44,72226.0,-11.09,-11.89,-11.93,0,*69
1487711117.43,14825,11.44,72262.5,-11.05,-11.89,-11.85,0,*63
1487711118.72,14826,11.44,72266.5,-11.09,-11.89,-11.89,0,*60
1487711120.01,14827,11.44,72268.8,-11.09,-11.93,-11.93,0,*61
1487711121.31,14828,11.44,72264.5,-11.09,-11.93,-11.93,0,*6E
1487711122.59,14829,11.44,72236.8,-11.09,-12.07,-12.07,0,*6F
1487711123.88,14830,11.44,72236.8,-11.09,-12.07,-11.97,0,*6D
1487711125.16,14831,11.44,72246.5,-11.09,-11.97,-12.07,0,*6C
1487711126.45,14832,11.44,72246.8,-11.09,-11.97,-11.97,0,*65
1487711127.71,14833,11.44,72264.0,-11.11,-11.93,-11.97,0,*69
1487711128.98,14834,11.44,72280.5,-11.11,-11.89,-11.89,0,*6A
1487711130.25,14835,11.44,72284.3,-11.11,-11.93,-11.89,0,*60
1487711131.51,14836,11.44,72290.3,-11.11,-11.81,-11.81,0,*68
1487711132.76,14837,11.44,72294.0,-11.11,-11.81,-11.81,0,*69
1487711134.05,14838,11.44,72284.3,-11.13,-11.85,-11.81,0,*60
1487711135.31,14839,11.44,72292.3,-11.11,-11.77,-11.81,0,*6E
1487711136.56,14840,11.44,72296.0,-11.11,-11.81,-11.81,0,*69
1487711137.84,14841,11.44,72296.5,-11.09,-11.77,-11.81,0,*68
1487711139.13,14842,11.44,72298.3,-11.09,-11.77,-11.89,0,*63
1487711140.39,14843,11.44,72296.5,-11.11,-11.81,-11.89,0,*62
1487711141.67,14844,11.44,72302.3,-11.09,-11.81,-11.81,0,*64
1487711142.95,14845,11.44,72296.8,-11.09,-11.77,-11.77,0,*65
1487711144.23,14846,11.44,72294.8,-11.09,-11.77,-11.77,0,*66
1487711145.51,14847,11.44,72290.5,-11.09,-11.77,-11.77,0,*67
1487711146.79,14848,11.44,72280.5,-11.09,-11.67,-11.67,0,*68
1487711148.08,14849,11.44,72292.5,-11.09,-11.77,-11.67,0,*68
1487711149.37,14850,11.44,72290.0,-11.09,-11.63,-11.67,0,*65
1487711150.65,14851,11.44,72292.8,-11.09,-11.63,-11.67,0,*64
1487711151.94,14852,11.44,72290.5,-11.09,-11.67,-11.67,0,*63
1487711153.23,14853,11.44,72316.3,-11.09,-11.67,-11.63,0,*66
1487711154.52,14854,11.44,72320.0,-11.09,-11.67,-11.67,0,*65
1487711155.8,14855,11.44,72326.0,-11.09,-11.63,-11.77,0,*61
1487711157.08,14856,11.44,72318.8,-11.09,-11.81,-11.77,0,*6E
1487711158.36,14857,11.44,72324.8,-11.09,-11.77,-11.81,0,*6F
1487711159.62,14858,11.44,72334.3,-11.05,-11.77,-11.73,0,*61
1487711160.9,14859,11.44,72332.8,-11.09,-11.77,-11.77,0,*68
1487711162.19,14860,11.44,72336.8,-11.09,-11.77,-11.67,0,*63
1487711163.47,14861,11.44,72344.3,-11.09,-11.67,-11.77,0,*62
1487711164.75,14862,11.44,72344.5,-11.05,-11.63,-11.63,0,*6C
1487711166.02,14863,11.44,72330.3,-11.05,-11.63,-11.59,0,*64
1487711167.29,14864,11.44,72344.8,-11.05,-11.63,-11.63,0,*6A
1487711168.56,14865,11.44,72360.8,-11.05,-11.77,-11.73,0,*6F
1487711169.82,14866,11.44,72346.3,-11.05,-11.73,-11.73,0,*68
1487711171.1,14867,11.44,72322.8,-11.09,-11.81,-11.77,0,*6C
1487711172.38,14868,11.44,72306.8,-11.09,-11.81,-11.81,0,*6A
1487711173.64,14869,11.44,72302.8,-11.05,-11.73,-11.77,0,*63
1487711174.91,14870,11.44,72300.5,-11.05,-11.77,-11.73,0,*6B
1487711176.17,14871,11.44,72286.8,-11.05,-11.63,-11.73,0,*6F
1487711177.45,14872,11.44,72292.3,-11.05,-11.63,-11.73,0,*6C
1487711178.71,14873,11.44,72312.0,-11.05,-11.63,-11.73,0,*6D
1487711179.99,14874,11.44,72330.5,-11.09,-11.77,-11.81,0,*6E
1487711181.25,14875,11.44,72326.8,-11.05,-11.73,-11.77,0,*6E
1487711182.53,14876,11.44,72314.3,-11.09,-11.73,-11.77,0,*61
1487711183.81,14877,11.44,72330.8,-11.09,-11.81,-11.77,0,*6D
1487711185.07,14878,11.44,72290.0,-11.05,-11.77,-11.77,0,*67
1487711186.34,14879,11.44,72272.0,-11.05,-11.73,-11.77,0,*62
1487711187.6,14880,11.44,72272.5,-11.05,-11.77,-11.73,0,*64
1487711188.87,14881,11.44,72276.5,-11.05,-11.77,-11.77,0,*61
1487711190.13,14882,11.44,72224.8,-11.05,-11.81,-11.77,0,*6B
1487711191.39,14883,11.44,72244.3,-11.05,-11.77,-11.77,0,*63
1487711192.66,14884,11.44,72260.3,-11.05,-11.73,-11.73,0,*64
1487711193.92,14885,11.44,72256.5,-11.05,-11.77,-11.77,0,*65
1487711195.19,14886,11.44,72298.3,-11.05,-11.73,-11.73,0,*66
1487711196.45,14887,11.44,72290.0,-11.05,-11.73,-11.73,0,*67
1487711197.72,14888,11.44,72296.0,-11.05,-11.59,-11.73,0,*60
1487711198.99,14889,11.44,72286.3,-11.05,-11.73,-11.63,0,*68
1487711200.26,14890,11.44,72304.0,-11.05,-11.77,-11.85,0,*6C
1487711201.53,14891,11.44,72302.5,-11.05,-11.85,-11.89,0,*6C
1487711202.82,14892,11.44,72298.5,-11.09,-11.93,-11.89,0,*64
1487711204.11,14893,11.44,72298.5,-11.09,-11.93,-11.85,0,*69
1487711205.38,14894,11.44,72292.5,-11.05,-11.89,-11.89,0,*65
1487711206.65,14895,11.44,72276.3,-11.05,-11.89,-11.89,0,*64
1487711207.92,14896,11.44,72260.5,-11.05,-11.89,-11.89,0,*67
1487711209.19,14897,11.44,72258.3,-11.05,-11.85,-11.85,0,*66
1487711210.47,14898,11.44,72248.8,-11.09,-11.89,-11.81,0,*6D
1487711211.74,14899,11.44,72252.8,-11.05,-11.77,-11.73,0,*6C
1487711213.0,14900,11.44,72250.3,-11.05,-11.77,-11.73,0,*6D
1487711214.27,14901,11.44,72256.3,-11.05,-11.77,-11.73,0,*6C
1487711215.53,14902,11.44,72268.5,-11.05,-11.73,-11.59,0,*63
1487711216.8,14903,11.44,72288.8,-11.05,-11.73,-11.73,0,*6A
1487711218.06,14904,11.44,72292.8,-11.05,-11.73,-11.73,0,*6D
1487711219.33,14905,11.44,72294.5,-11.05,-11.73,-11.73,0,*6C
1487711220.59,14906,11.44,72294.8,-11.05,-11.73,-11.73,0,*6F
1487711221.85,14907,11.44,72320.5,-11.05,-11.73,-11.85,0,*67
1487711223.12,14908,11.44,72340.3,-11.05,-11.73,-11.73,0,*61
1487711224.39,14909,11.44,72350.5,-11.05,-11.63,-11.77,0,*65
1487711225.65,14910,11.44,72348.8,-11.05,-11.73,-11.73,0,*68
1487711226.91,14911,11.44,72322.0,-11.05,-11.77,-11.77,0,*69
1487711228.18,14912,11.44,72284.5,-11.05,-11.73,-11.77,0,*6E
1487711229.44,14913,11.44,72296.5,-11.05,-11.77,-11.77,0,*6B
1487711230.71,14914,11.44,72296.5,-11.05,-11.77,-11.77,0,*6C
1487711231.97,14915,11.44,72292.3,-11.05,-11.77,-11.85,0,*60
1487711233.24,14916,11.44,72270.3,-11.05,-11.73,-11.73,0,*6E
1487711234.5,14917,11.44,72276.8,-11.05,-11.73,-11.77,0,*6B
1487711235.77,14918,11.44,72290.0,-11.05,-11.85,-11.73,0,*69
1487711237.06,14919,11.44,72292.8,-11.03,-11.77,-11.77,0,*67
1487711238.34,14920,11.44,72292.3,-11.03,-11.77,-11.77,0,*6D
1487711239.63,14921,11.44,72308.5,-11.03,-11.77,-11.85,0,*61
1487711240.92,14922,11.44,72304.5,-11.03,-11.77,-11.77,0,*6F
1487711242.19,14923,11.44,72300.0,-11.05,-11.85,-11.77,0,*65
1487711243.45,14924,11.44,72278.8,-11.05,-11.73,-11.77,0,*6B
1487711244.72,14925,11.44,72284.0,-11.05,-11.77,-11.73,0,*6A
1487711246.0,14926,11.44,72304.8,-11.03,-11.73,-11.73,0,*6B
1487711247.3,14927,11.44,72316.3,-11.03,-11.73,-11.63,0,*6B
1487711248.59,14928,11.44,72302.0,-11.03,-11.73,-11.63,0,*64
1487711249.85,14929,11.44,72306.3,-11.01,-11.73,-11.73,0,*66
1487711251.14,14930,11.44,72318.0,-11.03,-11.85,-11.85,0,*6C
1487711252.41,14931,11.44,72306.0,-11.01,-11.67,-11.73,0,*6A
1487711253.7,14932,11.44,72286.3,-11.03,-11.77,-11.85,0,*63
1487711254.99,14933,11.44,72262.0,-11.03,-11.89,-11.89,0,*6F
1487711256.29,14934,11.44,72238.0,-11.03,-11.85,-11.89,0,*64
1487711257.55,14935,11.44,72212.3,-11.01,-11.85,-11.81,0,*6F
1487711258.83,14936,11.44,72216.5,-11.03,-11.73,-11.77,0,*6E
1487711260.12,14937,11.44,72216.5,-11.03,-11.77,-11.77,0,*6B
1487711261.41,14938,11.44,72228.5,-11.03,-11.73,-11.73,0,*64
1487711262.67,14939,11.44,72232.8,-11.05,-11.73,-11.73,0,*63
1487711263.96,14940,11.44,72228.5,-11.03,-11.73,-11.73,0,*6B
1487711265.25,14941,11.44,72242.5,-11.03,-11.73,-11.73,0,*6A
1487711266.52,14942,11.44,72262.3,-11.01,-11.67,-11.67,0,*6B
1487711267.81,14943,11.44,72288.8,-11.03,-11.63,-11.73,0,*69
1487711269.1,14944,11.44,72286.0,-11.03,-11.73,-11.59,0,*67
1487711270.36,14945,11.44,72278.5,-11.01,-11.77,-11.59,0,*60
1487711271.63,14946,11.44,72284.5,-11.01,-11.55,-11.59,0,*63
1487711272.92,14947,11.44,72292.3,-11.03,-11.63,-11.63,0,*6C
1487711274.19,14948,11.44,72316.3,-11.01,-11.55,-11.55,0,*61
1487711275.46,14949,11.44,72322.5,-11.01,-11.59,-11.59,0,*60
1487711276.76,14950,11.44,72334.8,-11.03,-11.63,-11.63,0,*6A
1487711278.05,14951,11.44,72324.5,-11.03,-11.59,-11.59,0,*6B
1487711279.35,14952,11.44,72328.0,-11.03,-11.63,-11.63,0,*68
1487711280.62,14953,11.44,72328.5,-11.01,-11.55,-11.59,0,*67
1487711281.88,14954,11.44,72328.5,-11.01,-11.55,-11.55,0,*6C
1487711283.15,14955,11.44,72328.3,-11.01,-11.59,-11.59,0,*6D
1487711284.42,14956,11.44,72324.0,-11.01,-11.55,-11.55,0,*6E
1487711285.71,14957,11.44,72320.3,-11.03,-11.59,-11.59,0,*6D
1487711286.98,14958,11.44,72318.0,-11.01,-11.55,-11.55,0,*60
1487711288.25,14959,11.44,72318.3,-11.01,-11.55,-11.55,0,*61
1487711289.51,14960,11.44,72306.3,-11.01,-11.59,-11.55,0,*67
1487711290.8,14961,11.44,72302.3,-11.03,-11.73,-11.59,0,*60
1487711292.07,14962,11.44,72300.0,-11.01,-11.59,-11.55,0,*65
1487711293.34,14963,11.44,72300.5,-11.01,-11.59,-11.67,0,*65
1487711294.61,14964,11.44,72308.0,-11.01,-11.55,-11.55,0,*6F
1487711295.87,14965,11.44,72304.8,-11.01,-11.59,-11.59,0,*6E
1487711297.14,14966,11.44,72306.8,-11.01,-11.55,-11.55,0,*6D
1487711298.41,14967,11.44,72296.8,-11.01,-11.55,-11.55,0,*6C
1487711299.65,14968,11.44,72290.0,-11.01,-11.55,-11.45,0,*62